KE0TRL Weather Reports


time (UTC)temp
F
wind
direction
speed
knots
gust
knots
rain 1hr
in
rain 24hr
in
rain mn
in
humidity
%
barometer
mb
20260906183602 91 68 2.6 3.5 0.00 0.00 0.00 63 1012.9
20260906182402 90 0 0.0 3.5 0.00 0.00 0.00 66 1012.9
20260906181302 91 225 1.7 3.5 0.00 0.00 0.00 66 1013.2
20260906180203 89 180 4.3 4.3 0.00 0.00 0.00 70 1012.9
20260906174003 87 0 1.7 3.5 0.00 0.00 0.00 70 1013.5
20260906172902 87 180 0.9 4.3 0.00 0.00 0.00 71 1013.2
20260906171802 85 180 0.9 2.6 0.00 0.00 0.00 75 1013.5
20260906170702 85 248 4.3 4.3 0.00 0.00 0.00 76 1013.9
20260906165603 85 113 1.7 1.7 0.00 0.00 0.00 78 1013.5
20260906164402 83 270 0.9 1.7 0.00 0.00 0.00 79 1013.5
20260906163302 82 270 0.9 1.7 0.00 0.00 0.00 80 1013.5
20260906162202 81 158 0.9 3.5 0.00 0.00 0.00 81 1013.5
20260906161103 81 135 0.0 0.0 0.00 0.00 0.00 83 1013.5
20260906154602 80 158 1.7 1.7 0.00 0.00 0.00 81 1014.2
20260906153502 80 158 0.0 0.0 0.00 0.00 0.00 81 1014.2
20260906152306 80 158 0.0 1.7 0.00 0.00 0.00 81 1014.2
20260906151202 80 113 2.6 5.2 0.00 0.00 0.00 81 1014.2
20260906144802 80 180 0.0 2.6 0.00 0.00 0.00 81 1013.5
20260906142602 80 248 0.0 0.0 0.00 0.00 0.00 81 1013.2
20260906141402 80 270 0.9 1.7 0.00 0.00 0.00 81 1013.2
20260906140303 80 158 1.7 1.7 0.00 0.00 0.00 81 1013.2
20260906135202 80 180 3.5 3.5 0.00 0.00 0.00 81 1013.5
20260906134102 80 158 0.0 1.7 0.00 0.00 0.00 81 1013.5
20260906130702 79 203 0.0 0.9 0.00 0.00 0.00 83 1013.5
20260906125602 79 180 0.0 0.9 0.00 0.00 0.00 83 1013.5
20260906123302 78 203 0.0 0.9 0.00 0.00 0.00 83 1013.2
20260906121102 77 293 0.0 0.9 0.00 0.00 0.00 85 1012.9
20260906115902 77 180 3.5 3.5 0.00 0.00 0.00 85 1012.9
20260906114802 77 180 0.0 1.7 0.00 0.00 0.00 85 1012.9
20260906113702 77 203 0.0 0.0 0.00 0.00 0.00 86 1012.9
20260906112602 76 180 0.0 0.0 0.00 0.00 0.00 86 1012.5
20260906111402 76 225 0.0 0.0 0.00 0.00 0.00 86 1012.5
20260906104502 77 203 0.0 0.0 0.00 0.00 0.00 85 1012.5
20260906103402 77 225 0.0 0.0 0.00 0.00 0.00 85 1012.5
20260906101902 77 225 0.0 0.0 0.00 0.00 0.00 85 1012.2
20260906100802 77 158 0.0 0.0 0.00 0.00 0.00 85 1012.5
20260906094602 78 158 0.0 0.0 0.00 0.00 0.00 83 1012.5
20260906093002 78 158 0.0 0.0 0.00 0.00 0.00 81 1012.5
20260906091402 79 225 0.0 0.0 0.00 0.00 0.00 81 1012.5
20260906090302 79 180 0.0 0.0 0.00 0.00 0.00 81 1012.5
20260906085002 79 270 0.0 0.0 0.00 0.00 0.00 81 1012.9
20260906083802 79 225 0.0 0.0 0.00 0.00 0.00 81 1012.5
20260906082602 79 225 0.0 0.0 0.00 0.00 0.00 81 1012.5
20260906081502 79 203 0.0 0.9 0.00 0.00 0.00 81 1012.5
20260906080402 79 203 0.0 0.9 0.00 0.00 0.00 81 1012.5
20260906074103 80 225 0.0 1.7 0.00 0.00 0.00 81 1012.2
20260906072802 80 270 0.0 2.6 0.00 0.00 0.00 81 1012.2
20260906071602 80 180 0.0 0.9 0.00 0.00 0.00 81 1012.5
20260906065202 80 248 0.0 1.7 0.00 0.00 0.00 81 1012.5
20260906064102 80 180 1.7 1.7 0.00 0.00 0.00 81 1012.5
20260906063002 80 248 0.0 2.6 0.00 0.00 0.00 81 1012.5
20260906061902 81 180 0.0 0.0 0.00 0.00 0.00 81 1012.9
20260906054402 81 225 0.0 0.9 0.00 0.00 0.00 80 1012.9
20260906053401 81 248 0.9 0.9 0.00 0.00 0.00 80 1012.5
20260906052305 81 270 0.9 1.7 0.00 0.00 0.00 80 1012.5
20260906051202 82 225 2.6 2.6 0.00 0.00 0.00 80 1012.5
20260906045902 82 225 0.9 1.7 0.00 0.00 0.00 80 1012.9
20260906044803 82 270 0.9 1.7 0.00 0.00 0.00 79 1012.9
20260906043702 82 248 0.9 1.7 0.00 0.00 0.00 78 1012.9
20260906042604 82 225 0.9 1.7 0.00 0.00 0.00 78 1012.9
20260906041602 82 248 0.0 1.7 0.00 0.00 0.00 78 1012.9
20260906040502 83 225 0.0 1.7 0.00 0.00 0.00 78 1012.9
20260906035402 83 225 0.0 1.7 0.00 0.00 0.00 78 1012.9
20260906034302 83 270 0.0 0.0 0.00 0.00 0.00 78 1012.9
20260906031803 83 203 0.0 0.0 0.00 0.00 0.00 78 1012.5
20260906030802 83 248 0.0 0.0 0.00 0.00 0.00 76 1012.5
20260906025702 84 248 0.9 1.7 0.00 0.00 0.00 76 1012.5
20260906024602 84 225 1.7 1.7 0.00 0.00 0.00 76 1012.2
20260906023503 84 180 0.9 0.9 0.00 0.00 0.00 76 1011.5
20260906022402 84 270 0.9 1.7 0.00 0.00 0.00 76 1011.9
20260906021202 84 270 0.0 0.0 0.00 0.00 0.00 75 1011.5
20260906020103 85 180 0.9 1.7 0.00 0.00 0.00 75 1011.5
20260906015002 85 248 1.7 1.7 0.00 0.00 0.00 75 1011.5
20260906013902 85 225 1.7 1.7 0.00 0.00 0.00 74 1011.2
20260906012702 86 203 0.0 0.9 0.00 0.00 0.00 73 1011.2
20260906010503 87 225 0.0 0.9 0.00 0.00 0.00 70 1010.8
20260906004203 88 203 1.7 1.7 0.00 0.00 0.00 68 1010.8
20260906003102 89 225 0.9 1.7 0.00 0.00 0.00 66 1011.2
20260906001902 89 180 0.0 0.9 0.00 0.00 0.00 65 1010.8
20260906000802 90 45 1.7 4.3 0.00 0.00 0.00 65 1010.8
20260905235602 91 0 0.9 1.7 0.00 0.00 0.00 63 1010.5
20260905234502 91 180 1.7 2.6 0.00 0.00 0.00 61 1010.5
20260905233402 92 158 0.9 2.6 0.00 0.00 0.00 61 1010.5
20260905232305 93 203 0.9 0.9 0.00 0.00 0.00 60 1010.5
20260905231103 93 203 1.7 2.6 0.00 0.00 0.00 60 1010.8
20260905230003 95 203 0.0 0.9 0.00 0.00 0.00 59 1010.8
20260905224802 95 270 0.9 1.7 0.00 0.00 0.00 58 1010.5
20260905223602 95 113 2.6 2.6 0.00 0.00 0.00 56 1010.5
20260905222502 95 180 0.9 1.7 0.00 0.00 0.00 55 1010.5
20260905221403 95 158 0.9 2.6 0.00 0.00 0.00 55 1010.2
20260905220202 94 180 1.7 3.5 0.00 0.00 0.00 56 1009.8
20260905215103 94 180 1.7 4.3 0.00 0.00 0.00 55 1010.2
20260905214003 95 45 4.3 5.2 0.00 0.00 0.00 55 1010.2
20260905211702 93 270 1.7 1.7 0.00 0.00 0.00 56 1010.5
20260905205502 92 225 1.7 3.5 0.00 0.00 0.00 55 1010.8
20260905204402 93 270 0.9 2.6 0.00 0.00 0.00 55 1011.2
20260905203202 92 180 2.6 3.5 0.00 0.00 0.00 55 1011.2
20260905202102 91 225 1.7 3.5 0.00 0.00 0.00 56 1011.5
20260905201002 91 293 2.6 3.5 0.00 0.00 0.00 55 1011.9
20260905195902 91 270 2.6 4.3 0.00 0.00 0.00 56 1012.2
20260905194702 90 248 1.7 4.3 0.00 0.00 0.00 59 1012.5
20260905192402 89 225 2.6 4.3 0.00 0.00 0.00 58 1012.5
20260905190202 89 248 2.6 3.5 0.00 0.00 0.00 59 1013.2
20260905185102 88 225 4.3 7.0 0.00 0.00 0.00 63 1013.2